Regional Weather Roundup
Issued by NWS Cleveland, OH

Home | Current Version | Previous Version | Graphics & Text | Print | Product List | Glossary On
Versions: 1 2 3 4 5 6 7 8 9 10 11 12 13 14 15 16 17 18 19 20 21 22 23 24 25 26 27 28 29 30 31 32 33 34 35 36 37 38 39 40 41 42 43 44 45 46 47 48 49 50
000
ASUS41 KCLE 221600
RWRCLE
OHIO REGIONAL WEATHER ROUNDUP
NATIONAL WEATHER SERVICE WILMINGTON, OH
1200 PM EDT WED OCT 22 2014

NOTE: "FAIR" INDICATES FEW OR NO CLOUDS BELOW 12,000 FEET WITH NO
SIGNIFICANT WEATHER AND/OR OBSTRUCTIONS TO VISIBILITY.

OHZ001>008-015>018-024>027-034-035-043-044-221700-
   NORTHWEST OHIO

CITY           SKY/WX    TMP DP  RH WIND       PRES   REMARKS
DEFIANCE       CLOUDY    47  39  74 NE9       30.36R
FINDLAY        CLOUDY    49  41  74 N12       30.31S
TOLEDO EXPRESS CLOUDY    46  39  76 N9        30.34R
TOLEDO METCALF CLOUDY    49  39  68 N9        30.34R
LIMA           CLOUDY    48  40  73 N8        30.32R
$$

OHZ009>014-019>023-028>033-038-089-221700-
   NORTHEAST OHIO

CITY           SKY/WX    TMP DP  RH WIND       PRES   REMARKS
CLE-HOPKINS    CLOUDY    48  42  80 N12       30.30R
CLE-LAKEFRONT  CLOUDY    50  43  77 N13       30.27R
CUY CO. ARPT   NOT AVBL
LORAIN-ELYRIA    N/A    N/A N/A N/A MISG      30.29R
ASHTABULA      CLOUDY    48  42  80 VRB6      30.25S
AKRON-CANTON   CLOUDY    48  43  82 N15       30.23R
WOOSTER        CLOUDY    48  43  81 N15       30.26R
MANSFIELD      CLOUDY    44  43  96 NW14      30.27R
YOUNGSTOWN     CLOUDY    47  42  83 N13       30.22R
$$

OHZ042-051>053-060>062-070>072-077>081-221700-
  SOUTHWEST OHIO

CITY           SKY/WX    TMP DP  RH WIND       PRES   REMARKS
CINC-COVINGTON CLOUDY    52  39  61 N13       30.30R
CINC-LUNKEN    CLOUDY    52  41  66 NW10      30.31S
HAMILTON       CLOUDY    50  42  74 NW7       30.33R
DAYTON         NOT AVBL
WRIGHT-PAT AFB CLOUDY    48  41  77 N8        30.30R
DAYTON GENERAL PTSUNNY   50  42  74 N13G21    30.30R
WILMINGTON     CLOUDY    47  40  76 N13       30.29R
$$

OHZ036-037-039>041-045>050-054>059-063>069-073>076-082>088-221700-
  CENTRAL AND SOUTHEAST OHIO

CITY           SKY/WX    TMP DP  RH WIND       PRES   REMARKS
COLUMBUS       CLOUDY    49  42  77 N14G22    30.26S
OSU AIRPORT    CLOUDY    50  43  77 N12       30.26F
BOLTON FIELD   NOT AVBL
RICKENBACK AFB NOT AVBL
NEWARK         CLOUDY    48  43  82 N9        30.25R
MARION         CLOUDY    48  41  76 N17       30.29S
LANCASTER      CLOUDY    50  43  77 N14G20    30.26R
ZANESVILLE     CLOUDY    49  43  80 N9        30.23R
NEW PHILLY     CLOUDY    49  44  83 N6        30.24R
$$



USA.gov is the U.S. government's official web portal to all federal, state and local government web resources and services.